TIME,DELAY(SENSOR),PRES,T(CTD),SAL,OXYGEN,RAWTEMP,T(OPTODE),TCPHASE,FLUOR,BETA(BETA700),BETA(BETA412),BETA(BETA440),CDOM,C(CSC),ED(ED412.40),ED(ED444.00),ED(ED489.70),ED(ED554.30),LU(LU411.80),LU(LU443.40),LU(LU489.60),LU(LU554.10),COMP,TILTX,TILTX(TILTY),CHECK
1356384855,5806,497.6900024414062500,6.2017002105712890,34.1491012573242200,65.6167068481445300,612.3723754882812000,6.1838569641113280,50.8443984985351560,52,105,88,80,80,15177,2147747081,2147422729,2148005531,2147875666,2147634560,2147073627,2148251638,2147195702,199,4,12,50786
1356384989,5809,486.5199890136719000,6.3436999320983890,34.1330986022949200,71.2818603515625000,607.9279174804688000,6.3278660774230960,50.0718498229980500,52,106,89,81,78,15179,2147746669,2147421961,2148004288,2147873545,2147630784,2147075245,2148248886,2147197961,2536,4,13,22756
1356385131,5806,476.0199890136719000,6.4196000099182130,34.1301994323730500,75.4511184692382800,605.7473144531250000,6.3984532356262210,49.5331993103027340,52,104,86,80,79,15180,2147749467,2147423588,2148003876,2147868754,2147633773,2147075492,2148250706,2147198043,2812,4,13,12275
1356385288,5809,463.7799987792969000,6.6574997901916500,34.1223983764648440,79.8981170654296900,598.4921264648438000,6.6329650878906250,48.8981208801269500,52,105,86,79,79,15178,2147748452,2147421750,2148004260,2147871734,2147633206,2147073938,2148242368,2147198281,2868,4,13,55705
1356385408,5803,452.9899902343750000,6.7481999397277830,34.1217002868652340,83.2332687377929700,595.2977905273438000,6.7360610961914060,48.4659805297851560,51,104,89,81,79,15171,2147749275,2147420050,2148004498,2147869421,2147629522,2147074779,2148242614,2147199195,2104,3,13,36491
1356385530,5802,441.8599853515625000,6.9970998764038090,34.1234016418457000,87.3823089599609400,587.8541870117188000,6.9759240150451660,47.8790016174316400,51,107,91,80,78,15179,2147745316,2147424685,2148004406,2147872978,2147626770,2147079094,2148243410,2147197860,1430,4,13,50688
1356385650,5809,430.8999938964844000,7.3737998008728030,34.1329002380371100,90.5971832275390600,576.3900756835938000,7.3443508148193360,47.3440895080566400,51,103,86,80,78,15178,2147747922,2147423524,2148007616,2147869568,2147628690,2147077211,2148245366,2147203227,2091,4,13,63134
1356385770,5807,420.2600097656250000,7.5810999870300290,34.1277008056640600,98.2639236450195300,569.3840942382812000,7.5689258575439450,46.3990402221679700,52,105,89,81,76,15176,2147743762,2147424219,2148002413,2147872301,2147628260,2147082048,2148239698,2147196982,2309,4,13,12975
1356385903,5810,409.0799865722656000,7.7581000328063965,34.1272010803222660,106.7884979248046900,563.7695922851562000,7.7485871315002440,45.4172096252441400,50,104,89,80,78,15178,2147744393,2147420982,2148001536,2147871085,2147626651,2147081554,2148240987,2147199341,1942,3,13,36842
1356386034,5807,398.3200073242187500,7.9998002052307130,34.1138000488281250,115.9571990966796900,556.3226928710938000,7.9864649772644040,44.3790702819824200,50,105,89,80,77,15175,2147743981,2147425499,2148002322,2147869997,2147624073,2147083565,2148238893,2147201737,1897,3,13,58743
1356386167,5806,387.3200073242187500,8.1958999633789060,34.1125984191894500,123.0251998901367200,549.3759765625000000,8.2079448699951170,43.5858802795410160,50,105,91,80,75,15175,2147740224,2147426194,2148002057,2147874166,2147624539,2147089856,2148243081,2147199552,1683,4,12,39921
1356386298,5806,375.9899902343750000,8.5848999023437500,34.1124000549316400,135.5068969726562500,538.0277709960938000,8.5689086914062500,42.2574195861816400,50,104,88,80,74,15175,2147741686,2147425197,2148002788,2147872146,2147620397,2147091337,2148234953,2147201161,2579,4,13,14083
1356386418,5805,365.0700073242187500,8.6859998703002930,34.1113014221191400,141.3058013916015600,534.6954956054688000,8.6747035980224610,41.6983184814453100,51,106,89,80,73,15175,2147743360,2147423296,2148001792,2147872274,2147624100,2147089718,2148231387,2147201051,2961,4,13,49978
1356386541,5810,353.6400146484375000,8.8296003341674800,34.1030006408691400,150.3000030517578000,529.4190063476562000,8.8420505523681640,40.8594207763671900,50,105,90,80,74,15173,2147740534,2147421723,2148002989,2147870144,2147620525,2147089828,2148234651,2147201618,461,4,13,24929
1356386650,5804,343.5400085449219000,9.1402997970581050,34.1022987365722660,156.2640075683593800,520.5941162109375000,9.1214561462402340,40.2308006286621100,50,105,88,81,74,15174,2147736804,2147421302,2148004781,2147870902,2147617709,2147091081,2148230537,2147199844,983,4,13,2320
1356386783,5811,332.7600097656250000,9.3507995605468750,34.1041984558105500,165.3446960449218800,513.7083740234375000,9.3390617370605470,39.4162101745605500,49,106,88,81,73,15175,2147742454,2147424045,2148001654,2147869906,2147616704,2147089472,2148227373,2147201846,108,4,13,47196
1356386936,5809,321.7600097656250000,9.6645002365112300,34.1063003540039060,170.4974975585937500,503.2869873046875000,9.6677446365356450,38.8578796386718750,50,106,89,81,72,15174,2147735552,2147423670,2148001517,2147870710,2147614381,2147091273,2148225106,2147202404,2958,4,14,3397
1356387122,5809,309.1700134277344000,10.3198995590209960,34.1188011169433600,184.4541015625000000,482.6836853027344000,10.3153295516967770,37.5335388183593750,49,105,89,81,72,15175,2147739401,2147424164,2148003483,2147870793,2147610166,2147101778,2148225325,2147201984,490,4,13,36317
1356387245,5809,297.7999877929687500,10.4820995330810550,34.1269989013671900,190.9530029296875000,477.4259033203125000,10.4801397323608400,37.0161781311035160,50,105,90,80,70,15172,2147735533,2147423204,2148002953,2147874075,2147613366,2147101577,2148224950,2147206006,2807,3,13,37254
1356387354,5809,287.3200073242187500,10.7629995346069340,34.1388015747070300,193.0800018310547000,468.4020080566406000,10.7625904083251950,36.7287101745605500,49,107,89,82,72,15173,2147728685,2147423332,2148001307,2147872091,2147610761,2147105627,2148214747,2147203355,2278,4,13,31146
1356387477,5806,276.0599975585937500,11.0775003433227540,34.1437988281250000,195.6974029541015600,458.2291870117187500,11.0804004669189450,36.3949089050293000,50,108,88,81,72,15172,2147729472,2147423305,2148008036,2147873426,2147609380,2147109796,2148220745,2147201956,2814,3,14,10697
1356387608,5812,265.5299987792969000,11.6632995605468750,34.1512985229492200,198.2483978271484400,440.0282897949219000,11.6475200653076170,35.9391899108886700,50,109,89,79,70,15174,2147727524,2147426550,2148007808,2147872795,2147604644,2147111222,2148220854,2147201837,2900,4,13,5676
1356387763,5806,254.6000061035156200,12.3541002273559570,34.2075004577636700,204.4875030517578000,417.0660095214844000,12.3604497909545900,35.1924095153808600,48,104,86,81,69,15163,2147729371,2147425426,2148013513,2147871232,2147601298,2147113700,2148216146,2147205110,730,3,14,64724
1356387927,5808,243.8300018310547000,12.8545999526977540,34.2327995300293000,206.2364959716797000,401.5545959472656000,12.8405895233154300,34.8445205688476560,49,105,89,81,69,15169,2147725686,2147429641,2148011785,2147872576,2147598793,2147126976,2148215369,2147202651,1992,3,14,63471
1356388093,5809,232.3399963378906200,13.8514995574951170,34.2976989746093750,207.2621002197265600,367.2872924804687500,13.8976602554321290,34.2553787231445300,49,102,87,78,69,15168,2147725174,2147434139,2148028562,2147872566,2147595419,2147135049,2148215579,2147205741,58,2,14,42329
1356388213,5806,221.3999938964843800,14.4632997512817380,34.3372993469238300,207.7640991210937500,350.0162963867187500,14.4287996292114260,33.9649810791015600,49,104,85,81,67,15169,2147718976,2147441298,2148047433,2147872758,2147592795,2147141650,2148223296,2147205686,537,4,13,51337
1356388335,5810,210.7400054931640600,15.2115001678466800,34.4208984375000000,208.6938018798828000,323.9378967285156000,15.2290697097778320,33.5230216979980500,49,103,85,80,67,15166,2147722386,2147450468,2148076662,2147873261,2147592539,2147147565,2148231204,2147208822,2853,3,14,13239
1356388477,5806,199.5200042724609400,15.6919002532958980,34.4841003417968750,214.0473022460937500,308.7691040039062500,15.6937704086303710,33.0001296997070300,49,104,90,80,67,15168,2147721837,2147465627,2148107666,2147873764,2147584566,2147163849,2148242642,2147210934,1693,3,14,46730
1356388531,5809,195.1000061035156200,15.8173999786376950,34.5052986145019500,214.3751983642578000,304.6249084472656000,15.8206396102905270,32.9215507507324200,50,100,87,79,66,15166,2147723602,2147476032,2148127222,2147872155,2147584073,2147173284,2148254729,2147211794,1909,3,15,13692
1356388585,5811,191.1399993896484400,16.0583000183105470,34.5298004150390600,214.4040069580078000,296.9075927734375000,16.0568103790283200,32.8084983825683600,49,102,89,80,66,15166,2147722486,2147481545,2148144813,2147872155,2147584822,2147176576,2148259693,2147215689,2119,3,15,19875
1356388659,5811,186.6399993896484400,16.5547008514404300,34.5857009887695300,213.8217926025390600,281.1283874511719000,16.5394001007080080,32.6139793395996100,49,103,86,80,65,15166,2147721051,2147493211,2148167186,2147871917,2147584256,2147185261,2148264987,2147213952,2485,3,15,56195
1356388746,5807,182.6900024414062500,16.8936996459960940,34.6293983459472660,213.0915985107422000,268.4288024902344000,16.9275493621826170,32.4730110168457000,49,104,87,81,66,15163,2147724918,2147506486,2148188891,2147870820,2147584585,2147195922,2148279250,2147213174,2767,3,15,47024
1356388844,5808,178.8600006103515600,17.4825000762939450,34.7042007446289060,211.7839965820312500,250.9465026855468800,17.4616394042968750,32.2977485656738300,49,103,85,80,65,15163,2147725677,2147521865,2148216813,2147872292,2147580224,2147208301,2148287844,2147211830,97,3,15,16406
1356388944,5807,174.6300048828125000,17.6700992584228500,34.7229003906250000,212.2785034179687500,245.1734008789062500,17.6379604339599600,32.1898002624511700,50,101,87,81,66,15161,2147726884,2147536841,2148247716,2147874395,2147579739,2147228553,2148301065,2147216722,715,3,14,43539
1356389031,5805,170.5899963378906200,17.7187004089355470,34.7405014038085940,212.6580963134765600,242.6782989501953000,17.7141609191894530,32.1340904235839840,50,103,85,80,65,15161,2147732598,2147558226,2148290596,2147871433,2147581604,2147232905,2148320603,2147215798,1435,3,15,54864
1356389118,5807,166.3500061035156200,17.7222003936767580,34.7419013977050800,212.9542999267578000,242.2546997070312500,17.7271003723144530,32.1118888854980500,49,101,88,81,66,15157,2147738925,2147584301,2148340745,2147874733,2147582948,2147246390,2148347922,2147220836,1784,3,15,37580
1356389194,5806,162.7299957275390600,18.0708007812500000,34.7851982116699200,212.3892059326172000,232.3627014160156200,18.0291900634765620,32.0045585632324200,50,101,85,81,64,15159,2147742217,2147609837,2148386843,2147872109,2147582473,2147263588,2148369380,2147223360,1932,3,15,57695
1356389306,5809,158.9900054931640600,18.3726997375488280,34.8329010009765600,212.9494018554687500,220.9817962646484400,18.3767395019531250,31.8165702819824220,50,102,89,80,64,15160,2147750573,2147626441,2148418468,2147871725,2147588315,2147278546,2148385536,2147227492,1177,2,15,47264
1356389492,5804,155.4600067138672000,18.9176006317138670,34.9212989807128900,216.3961029052734400,203.5290985107422000,18.9097690582275400,31.3917999267578120,51,102,88,80,64,15151,2147754267,2147636699,2148425563,2147873097,2147587675,2147293138,2148386413,2147227081,215,2,15,46426
1356389643,5806,150.9299926757812500,19.0972003936767580,34.9500999450683600,217.9355926513672000,197.2104034423828000,19.1028099060058600,31.2245597839355470,52,101,88,80,64,15154,2147761609,2147655058,2148454500,2147871762,2147589019,2147313261,2148396781,2147228434,3460,3,15,18518
1356389741,5806,146.3899993896484400,19.4223003387451170,34.9976005554199200,218.7230072021484400,186.5308074951172000,19.4291305541992200,31.0386390686035160,51,103,86,80,63,15154,2147775972,2147682761,2148500864,2147870838,2147596233,2147329179,2148419894,2147230656,628,3,15,36947
1356389817,5810,142.3300018310547000,19.6518001556396500,35.0313987731933600,219.1815948486328000,179.6614990234375000,19.6390991210937500,30.9222602844238280,54,101,88,80,63,15150,2147788653,2147713536,2148548918,2147874304,2147601728,2147348114,2148447771,2147231552,1717,2,15,3511
1356389896,5810,137.9600067138672000,19.8428993225097660,35.0583000183105500,219.4349975585937500,173.5005035400390600,19.8274593353271500,30.8266296386718750,55,101,90,79,62,15149,2147805458,2147757906,2148625746,2147875968,2147605632,2147377453,2148481060,2147238134,1247,2,15,812
1356389961,5809,134.3000030517578000,19.9673995971679700,35.0724983215332000,219.7256927490234400,169.5984039306640600,19.9467906951904300,30.7592792510986330,55,108,85,80,64,15149,2147821604,2147803428,2148696603,2147874752,2147615734,2147407689,2148516041,2147238125,995,2,15,59394
1356390037,5809,130.2899932861328000,19.9962997436523440,35.0699996948242200,219.1719055175781200,168.1347045898437500,19.9915599822998050,30.7684192657470700,56,103,87,81,63,15146,2147853952,2147860205,2148788525,2147876909,2147629467,2147446445,2148561682,2147242185,222,2,15,33537
1356390113,5808,126.6999969482421900,20.1818008422851560,35.0830993652343750,217.7532043457031200,162.1038970947265600,20.1760501861572270,30.7616500854492200,58,104,87,80,64,15146,2147882358,2147914651,2148882569,2147879789,2147639186,2147481216,2148611556,2147244854,2767,2,16,62117
1356390213,5811,123.1600036621093800,20.2451000213623050,35.0581016540527340,213.7201995849609400,160.0330047607422000,20.2394104003906250,30.9462604522705080,60,107,86,81,64,15136,2147910555,2147949668,2148927524,2147881654,2147652964,2147493302,2148625252,2147249481,2430,2,15,36347
1356390355,5808,119.1299972534179700,20.3469009399414060,35.0707015991210940,211.8766021728515600,156.6414031982422000,20.3432102203369140,30.9997692108154300,62,108,86,80,64,15135,2147988854,2148087762,2149138925,2147885193,2147681700,2147573860,2148722276,2147255250,1550,2,15,2606
1356390475,5808,115.0599975585937500,20.6798000335693360,35.1341018676757800,214.0829925537109400,146.4953002929687500,20.6538391113281250,30.7464809417724600,65,108,87,82,63,15139,2148055789,2148186340,2149287067,2147887734,2147704301,2147627428,2148796845,2147264941,562,2,15,21263
1356390575,5806,110.2799987792968800,20.8645000457763670,35.1328010559082000,217.8399047851562500,140.5980987548828000,20.8344898223876950,30.4717903137207030,70,113,87,82,64,15125,2148149723,2148324150,2149483611,2147892662,2147744128,2147711186,2148889261,2147270153,287,2,15,4592
1356390640,5810,106.5000000000000000,20.9510002136230470,35.1323013305664060,215.3076019287109400,137.0045013427734400,20.9446105957031250,30.5562191009521500,76,112,90,81,63,15124,2148247433,2148465225,2149683099,2147900370,2147784813,2147782802,2148982884,2147279597,3197,2,15,61819
1356390716,5809,102.7099990844726600,21.1408996582031250,35.1501007080078100,215.3489990234375000,130.1100006103515600,21.1559696197509770,30.4628391265869140,78,113,88,81,63,15121,2148368630,2148612726,2149882989,2147909888,2147837202,2147860288,2149072164,2147288036,2258,3,16,40844
1356390814,5808,99.1500015258789000,21.4230995178222660,35.1786994934082000,220.5446014404297000,122.2882995605468800,21.3959007263183600,30.0924491882324220,98,114,91,83,62,15103,2148496082,2148764644,2150066267,2147916928,2147883794,2147929453,2149127634,2147292772,2373,2,15,43934
1356390893,5807,97.3700027465820300,21.4542007446289060,35.1822013854980500,224.4895935058593800,120.6486968994140600,21.4462108612060550,29.8731498718261720,99,116,87,83,62,15094,2148596077,2148862857,2150178386,2147919369,2147918482,2147963273,2149163757,2147299574,2860,2,15,16847
1356391035,5808,95.9599990844726600,21.7122993469238280,35.1857986450195300,227.5735931396484400,112.3706970214843800,21.7003707885742200,29.6140193939209000,108,117,88,83,63,15086,2148728950,2148980745,2150299090,2147925897,2147963995,2148003821,2149189933,2147304621,642,2,15,2260
1356391223,5809,94.0000000000000000,21.9573001861572270,35.1772003173828100,230.9936981201172000,104.6956024169921900,21.9361896514892580,29.3502407073974600,114,118,92,83,62,15077,2149115648,2149427154,2150868854,2147939675,2148103936,2148175680,2149389440,2147325092,2792,2,16,17622
1356391288,5809,91.7699966430664000,22.0526008605957030,35.1772003173828100,232.4326934814453000,101.3914031982421900,22.0377693176269530,29.2394294738769530,121,118,86,82,61,15072,2149492571,2149875638,2151448585,2147963126,2148236681,2148374134,2149600969,2147351396,121,2,16,43
1356391342,5808,89.6699981689453100,22.1833992004394530,35.1935997009277340,233.6361999511718800,98.2712478637695300,22.1337299346923830,29.1427307128906250,126,117,91,82,61,15069,2149883648,2150340790,2152038262,2147984813,2148383085,2148565741,2149833782,2147375625,443,2,15,12203
1356391396,5808,87.5699996948242200,22.3542995452880860,35.2142982482910160,232.5393066406250000,92.3481597900390600,22.3159809112548830,29.1187705993652340,127,122,89,83,62,15065,2150377243,2150922998,2152778916,2148014838,2148566144,2148816886,2150099821,2147404544,749,2,15,8727
1356391450,5810,85.7500000000000000,22.4314002990722660,35.2089004516601560,231.9208984375000000,89.0006866455078100,22.4190292358398440,29.1054801940917970,132,122,89,82,61,15059,2150951360,2151585453,2153598354,2148049024,2148771392,2149089243,2150414921,2147443245,1155,1,16,24565
1356391528,5805,83.2799987792968800,22.5440998077392580,35.1941986083984400,233.7588958740234400,85.3371505737304700,22.5318603515625000,28.9723396301269530,133,118,87,83,61,15052,2151869860,2152583332,2154782683,2148102445,2149108260,2149487113,2150841115,2147488128,948,1,15,11313
1356391582,5808,81.2900009155273400,22.7236003875732420,35.1899986267089840,235.9203948974609400,79.5313034057617200,22.7107791900634770,28.7981491088867200,140,120,89,83,62,15046,2152658770,2153435693,2155732946,2148151744,2149383954,2149808036,2151175378,2147528512,523,2,16,33749
1356391636,5809,79.5800018310546900,23.0128993988037100,35.2178993225097660,236.6831054687500000,70.8082504272461000,22.9798297882080080,28.6527900695800780,137,120,93,83,60,15040,2153385142,2154196224,2156557705,2148187712,2149645860,2150095890,2151460105,2147566317,105,2,15,17639
1356391690,5809,78.2900009155273400,23.0669002532959000,35.2102012634277340,237.6336059570312500,68.9349212646484400,23.0376491546630860,28.5857200622558600,134,120,89,83,61,15038,2154028964,2154872201,2157285202,2148225243,2149893595,2150357842,2151731675,2147599305,3369,2,16,7331
1356391788,5809,76.6500015258789000,23.9545993804931640,35.2466011047363300,236.5552062988281200,43.6396102905273440,23.8198890686035160,28.3182601928710940,129,120,91,83,60,15044,2154945435,2155840905,2158350838,2148283126,2150266989,2150757120,2152136941,2147649974,3508,1,16,6332
1356391987,5809,74.7500000000000000,24.3724002838134770,35.2776985168457000,236.6506958007812500,27.8765506744384770,24.3088703155517580,28.1177902221679700,116,122,92,84,60,15043,2155593078,2156521554,2159076681,2148343542,2150564288,2151092178,2152437476,2147692973,2833,2,16,62808
1356392107,5809,72.2799987792968800,24.4211997985839840,35.2827987670898440,236.3876037597656200,25.9218902587890620,24.3695907592773440,28.1055603027343750,109,117,93,84,61,15050,2155901677,2156816265,2159340224,2148394944,2150735149,2151250770,2152562870,2147717101,3349,2,16,14430
1356392196,5810,70.1999969482421900,24.6368999481201170,35.2896003723144500,235.7418060302734400,18.7953205108642580,24.5911598205566400,28.0465202331542970,91,119,89,84,58,15054,2156428608,2157345892,2159904704,2148464557,2151170157,2151670290,2152924900,2147764507,666,2,16,18810
1356392283,5809,68.6100006103515600,24.6711006164550780,35.2966995239257800,236.2286071777343800,17.2659091949462900,24.6387405395507800,28.0054206848144530,77,118,91,83,57,15057,2157035712,2158014948,2160695286,2148542592,2151782098,2152299584,2153455259,2147827172,1172,2,16,54944
1356392503,5810,66.0000000000000000,24.7015991210937500,35.3004989624023440,236.7642059326172000,15.4535703659057620,24.6951408386230470,27.9587402343750000,70,116,94,83,56,15054,2159234523,2160502016,2163634752,2148828361,2154321782,2154826331,2155578130,2148046235,1184,2,16,44782
1356392557,5806,63.7799987792968750,24.7014007568359380,35.3004989624023440,236.9380035400390600,15.4066495895385740,24.6965999603271500,27.9502105712890620,72,116,90,85,56,15056,2160440877,2161807753,2165136118,2149031579,2155597430,2156095588,2156633846,2148171309,1011,1,16,34927
1356392611,5807,61.1899986267089840,24.6996002197265620,35.3008995056152340,237.0769958496093800,15.3371200561523440,24.6987705230712900,27.9430999755859380,72,118,90,83,57,15053,2161821888,2163310884,2166832786,2149266221,2156992301,2157473353,2157790198,2148317613,991,2,16,41608
1356392665,5809,58.2999992370605500,24.7031002044677730,35.3003997802734400,237.1533050537109400,15.3045701980590820,24.6997795104980470,27.9393596649169920,71,117,92,83,57,15056,2163501851,2165122477,2168857307,2149615414,2158624384,2159079369,2159132370,2148491446,894,1,16,59975
1356392719,5807,55.2700004577636700,24.7026004791259770,35.3007011413574200,237.2388000488281200,15.3179397583007810,24.6993694305419920,27.9355392456054700,73,117,91,84,58,15053,2164970944,2166651419,2170501622,2150019602,2160117641,2160519734,2160297974,2148664045,815,1,16,48424
1356392776,5806,52.2000007629394500,24.7028999328613280,35.3008995056152340,237.3908996582031200,15.3180398941040040,24.6993598937988280,27.9286708831787100,70,119,89,83,56,15054,2166809088,2168594706,2172619172,2150519753,2161906688,2162250413,2161701476,2148882496,865,1,16,13298
1356392830,5805,49.6599998474121100,24.7036991119384770,35.3008003234863300,237.4644012451172000,15.2897195816040040,24.7002391815185550,27.9251899719238280,72,116,90,83,57,15056,2168406052,2170248128,2174393545,2150999652,2163446848,2163708763,2162878820,2149075684,541,1,16,25007
1356392884,5807,47.1399993896484400,24.7029991149902340,35.3008003234863300,237.4326934814453000,15.2934598922729500,24.7001304626464840,27.9265403747558600,73,116,93,84,57,15054,2169856164,2171682642,2175891017,2151492032,2164858386,2164988077,2163884086,2149264009,181,1,16,2246
1356392938,5811,44.7099990844726560,24.7019004821777340,35.3004989624023440,237.4844970703125000,15.3309297561645500,24.6989593505859380,27.9248504638671880,73,116,90,85,58,15056,2171103277,2172933650,2177157092,2152045129,2166112192,2166130404,2164731785,2149450304,33,1,16,58448
1356392992,5805,42.2500000000000000,24.7012996673584000,35.3004989624023440,237.6240997314453000,15.3426303863525390,24.6986007690429700,27.9185600280761720,73,115,91,83,57,15057,2172350893,2174120329,2178285988,2152697536,2167475776,2167374436,2165686555,2149663085,3439,1,16,56678
1356393046,5807,39.4700012207031250,24.7008991241455080,35.3008003234863300,237.5662994384765600,15.3491201400756840,24.6983890533447270,27.9211997985839840,72,116,89,83,57,15053,2174393837,2176194084,2180454336,2153551030,2169461074,2169210020,2167119030,2149964507,3503,1,16,59392
1356393103,5808,36.2000007629394500,24.7007999420166000,35.3002014160156250,237.7270965576172000,15.3526601791381840,24.6982898712158200,27.9139709472656250,72,115,89,83,56,15050,2176810368,2178553590,2182824100,2155042907,2171909924,2171432502,2168815981,2150421083,3555,1,16,14534
1356393157,5812,32.8899993896484400,24.6989002227783200,35.3012008666992200,237.7989044189453000,15.3823604583740230,24.6973590850830080,27.9111690521240230,70,116,91,84,56,15051,2180569380,2182378496,2186853348,2156888530,2175195867,2174468900,2171188406,2151022811,1799,1,15,18218
1356393211,5809,29.5900001525878900,24.6987991333007800,35.3008003234863300,237.8598937988281200,15.3787202835083000,24.6974697113037100,27.9084205627441400,73,116,89,84,57,15043,2183953252,2185739099,2190281334,2159315264,2178286893,2177231414,2173286902,2151706779,3073,1,16,22284